Regional Weather Roundup
Issued by NWS

Home | Current Version | Previous Version | Graphics & Text | Print | Product List | Glossary On
Versions: 1 2 3 4 5 6 7 8 9 10 11 12 13 14 15 16 17 18 19 20 21 22 23 24 25 26 27 28 29 30 31 32 33 34 35 36 37 38 39 40 41 42 43 44 45 46 47 48 49 50
000
ASUS43 KLMK 152310
RWRKY
KENTUCKY REGIONAL WEATHER ROUNDUP
NATIONAL WEATHER SERVICE LOUISVILLE KY
600 PM EST SUN JAN 15 2017

NOTE "FAIR" INDICATES FEW OR NO CLOUDS BELOW 12,000 FEET
WITH NO SIGNIFICANT WEATHER AND/OR OBSTRUCTIONS TO VISIBILITY.

KYZ001>023-026-027-061>063-070>075-160000-
WESTERN AND SOUTH CENTRAL KENTUCKY

CITY           SKY/WX    TMP DP  RH WIND       PRES   REMARKS
PADUCAH        FOG       41  39  93 E6        30.27S VSB 1
HENDERSON      CLOUDY    41  36  81 E6        30.29R
OWENSBORO      CLOUDY    41  40  96 E7        30.30S FOG
HOPKINSVILLE   FOG       45  45 100 NE6       30.27S VSB 1/2
BOWLING GREEN  CLOUDY    46  44  93 NE5       30.29S FOG
GLASGOW        CLOUDY   N/A N/A N/A NE5       30.28S FOG
$$

KYZ024-025-028>034-038-045-046-053-160000-
NORTH CENTRAL KENTUCKY

CITY           SKY/WX    TMP DP  RH WIND       PRES   REMARKS
LOUISVILLE/SDF CLOUDY    41  38  89 NE5       30.32R FOG
LOUISVILLE/LOU LGT RAIN  40  38  93 CALM      30.32S FOG
FORT KNOX      LGT RAIN  40  39  99 E5        30.28S FOG
$$

KYZ035>037-039>044-047>052-055>060-089>105-160000-
NORTHEAST KENTUCKY

CITY           SKY/WX    TMP DP  RH WIND       PRES   REMARKS
LEXINGTON      RAIN      40  38  93 E5        30.30F FOG
COVINGTON      CLOUDY    37  36  96 NE5       30.32R FOG     WCI  33
FRANKFORT      LGT RAIN  40  37  89 NE3       30.30S FOG
$$

KYZ054-064>069-076>088-106>120-160000-
SOUTHEAST KENTUCKY

CITY           SKY/WX    TMP DP  RH WIND       PRES   REMARKS
JACKSON        LGT RAIN  39  38  96 VRB3      30.30S VSB 1/2
LONDON         LGT RAIN  45  43  93 NE3       30.28S
SOMERSET       CLOUDY    45  45 100 N3        30.30S
MIDDLESBORO    CLOUDY    55  53  94 CALM      30.27S
MONTICELLO     CLOUDY    47  46  97 N14       30.30R FOG
$$





USA.gov is the U.S. government's official web portal to all federal, state and local government web resources and services.